Tracking 31027 objects as of 19-Jul-2025
HD Live streaming from Space Station
objects crossing your sky now

CZ-4 DEB

Track CZ-4 DEB now!
10-day predictions


NORAD ID: 20884
Int'l Code: 1990-081AU
Perigee: 803.2 km
Apogee: 843.1 km
Inclination: 98.5 °
Period: 101.2 minutes
Semi major axis: 7194 km
RCS: 0.0546 m2 (small)
Launch date: September 3, 1990
Source: People's Republic of China (PRC)
Launch site: Taiyaun Space Center, China (TSC)

Note: This is SATELLITE DEBRIS
Your satellite tracking list
DMSP 5D-2 F13 DEB
Track 1 satellite(s)




NASA's NSSDC Master Catalog

Two Line Element Set (TLE):
1 20884U 90081AU  25199.77198361  .00001063  00000-0  49091-3 0  9994
2 20884  98.4957 212.3805 0027749 162.0276 198.1891 14.22771719607999
Source of the keplerian elements: AFSPC